Location: Buffign�court
(47.8126°N, 6.0176°E)
Time: 13:50:35
(UTC+00:00)

COSMOS 2428 - Pass Details

Date: 16 June 2021
Orbit: 845 x 858 km, 70.9° (Epoch: 01 August)

Event Time Altitude Azimuth Distance (km) Brightness Sun altitude
Exits shadow 23:42:59 - 245° (WSW) 3,031 5.3 -18.8°
Reaches altitude 10° 23:44:37 10° 253° (WSW) 2,490 5.0 -18.8°
Maximum altitude 23:49:34 29° 312° (NW) 1,525 4.4 -18.7°
Drops below altitude 10° 23:54:32 10° 12° (NNE) 2,504 6.4 -18.7°
Sets 23:57:21 0° 24° (NNE) 3,443 7.2 -18.7°
